Find Starlink 3114

NORAD ID: 49426 Int'l Des: 2021-104 Owner: SPXS Country: US Constellation: starlink operational
LEOCIRCULAR

Live-Position

3D-Globus wird geladen...

Über Starlink 3114

Beschreibung wird geladen...

Nächste Überflüge

Passes for default location (London). Set your location on the main map for personalized predictions.

Höhenverlauf

Loading altitude history...

Zweizeiliger Elementsatz

1 49426U 21104U 26125.31774635 .00000541 00000-0 52078-4 0 9991
2 49426 53.2188 334.9075 0001515 79.5755 280.5407 15.08840765247176
Epoch: 5. Mai 2026 • Age: 11 hours

Aktueller Status

Höhe 547.6 km
Geschwindigkeit 7.59 km/s
Subsatellitenpunkt -25.57°S, 169.2°E
Startdatum 13. Nov. 2021
Alter 4.4 years
Typ internet

Technische Details

Klassifizierung Payload
Masse 290.00 kg
Trockenmasse 270.00 kg
Gesamtmasse 290.00 kg
Länge 0.20 m
Durchmesser 2.80 m
Spannweite 9.00 m
Form Box + pan
Hersteller SPXS
Bus-Typ Starlink
Phasenstatus In Orbit
Besitzer/Staat SPXS/US

Most Searched